GEFSGL_con_cape1000_174.txt.gz
Probability
23 23 19 23 13 3 3 3 3 6 0 3 3 3 3 3 3 3 3 0 0 0 0 0 0 0 0 0 0 0 0 0 0 0 0 0 0 0 0 0 0 0 0
26 23 19 19 23 13 6 3 3 3 0 0 0 0 3 3 3 3 3 0 0 0 0 0 0 0 0 0 0 0 0 0 0 0 0 0 0 0 0 0 0 0 0
26 19 19 19 19 23 13 6 3 3 3 0 0 0 0 3 3 3 3 3 0 0 0 0 0 0 0 0 0 0 0 0 0 0 0 0 0 0 0 0 0 0 0
16 16 16 13 16 13 10 3 3 3 3 0 0 0 0 0 3 3 3 3 0 0 0 0 0 0 0 0 0 0 0 0 0 0 0 0 0 0 0 0 0 0 0
13 16 13 13 13 13 13 6 3 3 3 3 0 0 0 0 0 0 3 3 0 0 0 0 0 0 0 0 0 0 0 0 3 0 0 0 0 0 0 0 0 0 0
10 13 10 10 10 3 10 6 6 3 6 3 0 0 0 0 0 0 0 3 0 0 0 0 0 0 0 0 0 0 0 0 0 0 0 0 0 0 0 0 0 0 0
6 6 6 10 10 3 3 3 0 3 6 6 0 0 3 0 0 0 0 0 0 0 0 0 0 0 0 0 0 0 0 0 0 0 0 0 0 0 0 0 0 0 0
3 6 6 3 3 3 3 3 3 0 3 6 0 0 0 0 0 0 0 0 0 0 0 0 0 0 0 0 0 0 0 0 0 0 0 0 0 0 0 0 0 0 0
0 3 3 3 3 3 3 3 3 0 3 3 3 0 0 0 0 0 0 0 0 0 0 0 0 0 0 0 0 0 0 0 0 0 0 0 0 0 0 0 0 0 0
0 0 3 6 6 6 6 6 3 3 3 3 3 0 0 0 0 0 0 0 0 0 0 0 0 0 0 0 0 0 0 0 0 0 0 0 0 0 0 0 0 0 0
0 0 3 3 6 6 6 6 6 0 0 0 0 0 0 0 0 0 0 0 0 0 0 0 0 0 0 0 0 0 0 0 0 0 0 0 0 0 0 0 0 0 0
0 0 0 0 6 3 3 3 3 3 0 0 0 0 0 0 0 0 0 0 0 0 0 0 0 0 0 0 0 0 0 0 0 0 0 0 0 0 0 0 0 0 0
0 0 3 6 0 3 3 3 3 0 3 3 0 0 0 0 0 0 0 0 0 0 0 0 0 0 0 0 0 0 0 0 0 0 0 0 0 0 0 0 0 0 0
3 0 0 0 0 0 0 0 0 0 0 0 0 0 0 0 0 0 0 0 0 0 0 0 0 0 0 0 0 0 0 0 0 0 0 0 0 0 0 0 0 0 0
6 6 0 0 0 0 0 0 0 0 0 0 0 0 3 3 0 0 0 0 0 0 0 0 0 0 0 0 0 0 0 0 0 0 0 0 0 0 0 0 0 0 0
10 6 6 3 3 3 3 0 0 0 0 0 0 0 0 0 0 0 0 0 0 0 0 0 0 0 0 0 0 0 0 0 0 0 0 0 0 0 0 0 0 0 0
3 0 0 0 0 0 0 0 0 0 0 0 0 0 0 0 0 0 0 0 0 0 0 0 0 0 0 0 0 0 0 0 0 0 0 0 0 0 0 0 0 0 0
3 0 0 0 0 0 0 0 0 0 0 0 0 0 0 0 0 0 0 0 0 0 0 0 0 0 0 0 0 0 0 0 0 0 0 0 0 0 0 0 0 0 0
0 0 0 0 0 3 3 3 3 3 3 3 0 0 0 0 0 0 0 0 0 0 0 0 0 0 0 0 0 0 0 0 0 0 0 0 0 0 0 0 0 0 0
0 0 0 0 0 3 3 3 3 3 3 3 3 0 0 0 0 0 0 0 0 0 0 0 0 0 0 0 0 0 0 0 0 0 0 0 0 0 0 0 0 0 0
0 0 0 0 0 0 3 3 3 3 3 3 3 3 0 0 0 0 0 0 0 0 0 0 0 0 0 0 0 0 0 0 0 0 0 0 0 0 0 0 0 0 0
0 0 0 0 0 0 0 3 3 3 3 3 3 3 0 0 0 0 0 0 0 0 0 0 0 0 0 0 0 0 0 0 0 0 0 0 0 0 0 0 0 0 0
0 0 0 0 0 0 0 0 3 3 3 3 3 3 0 0 0 0 0 0 0 0 0 0 0 0 0 0 0 0 0 0 0 0 0 0 0 0 0 0 0 0 0
0 0 0 0 0 0 0 3 3 3 3 3 3 3 3 3 0 0 0 0 0 0 0 0 0 0 0 0 0 0 0 0 0 0 0 0 0 0 0 0 0 0 0
0 0 0 3 3 3 3 3 3 3 3 3 3 3 3 3 0 0 0 0 0 0 0 0 0 0 0 0 0 0 0 0 0 0 0 0 0 0 0 0 0 0 0
0 0 0 0 0 3 3 3 3 3 3 3 3 3 3 0 0 0 0 0 0 0 0 0 0 0 0 0 0 0 0 0 0 0 0 0 0 0 0 0 0 0 0

GEFSGL_con_cape1000_180.txt.gz
Probability
65 68 61 55 58 61 65 65 65 61 61 58 48 45 45 42 39 48 39 45 39 35 29 29 26 19 23 10 6 6 6 3 3 6 3 3 10 13 6 10 6 13 3
58 58 58 58 58 61 61 52 55 55 55 55 52 55 52 39 42 45 42 32 29 35 35 29 23 19 19 16 16 6 6 6 3 6 3 3 19 10 13 19 0 0 0
55 61 65 65 58 48 48 48 52 52 52 48 48 48 48 39 42 39 39 35 29 29 29 29 23 16 16 16 13 13 3 3 6 3 3 3 3 6 6 6 3 13 0
65 65 65 71 58 55 55 45 48 48 52 52 52 52 52 42 39 39 35 26 26 26 29 26 23 19 19 13 13 16 6 3 6 6 6 6 6 3 6 6 6 10 6
58 55 55 58 61 61 55 48 48 52 52 55 52 55 52 48 42 35 32 26 26 23 23 23 16 16 13 13 6 13 13 6 6 6 6 6 6 10 10 3 3 6 10
55 58 55 61 61 61 58 58 45 52 52 55 58 48 52 32 10 6 19 29 26 26 23 23 19 10 6 0 0 0 0 3 10 6 6 6 13 10 16 3 6 6 3
65 65 65 58 58 65 55 52 58 58 55 55 55 55 48 32 6 0 0 19 32 32 26 19 13 6 6 13 3 0 0 0 0 3 6 6 3 3 3 3 6 3 3
55 52 58 55 45 55 55 55 52 58 55 58 55 48 52 32 3 0 0 0 26 32 26 23 26 23 6 13 16 10 6 3 0 0 0 0 0 0 0 0 0 0 3
52 45 52 55 48 52 52 61 65 58 55 55 55 52 48 39 3 0 0 16 19 23 26 16 16 19 3 0 10 13 3 0 0 0 0 0 0 0 0 0 0 0 0
55 52 48 58 58 58 58 65 68 68 61 48 48 48 48 45 3 0 0 13 19 16 32 19 3 3 3 0 6 13 10 3 0 0 0 0 0 0 0 0 0 0 0
52 52 55 55 61 61 55 58 65 68 58 45 52 55 52 39 16 0 0 13 23 19 16 16 13 0 0 0 0 6 3 0 0 0 0 0 0 0 0 0 0 0 0
45 45 48 58 48 42 58 65 68 68 68 55 52 48 45 39 13 0 0 0 0 19 13 6 6 0 0 0 0 0 0 0 0 0 0 0 0 0 0 3 3 3 3
45 45 48 58 55 58 65 65 68 68 58 45 39 39 35 29 19 0 0 0 0 0 13 0 0 0 0 0 0 0 0 0 0 0 0 0 0 0 0 0 0 0 3
45 39 42 45 42 48 52 52 48 45 35 39 35 26 26 32 26 13 6 3 0 0 3 3 0 0 0 0 0 0 0 0 0 0 0 0 0 0 0 0 0 0 0
48 52 42 42 42 42 35 26 35 35 35 29 35 29 23 16 6 3 3 3 3 0 0 10 10 6 3 0 0 0 0 0 0 0 0 0 0 0 0 0 0 0 0
39 35 35 39 35 26 13 13 0 0 0 0 3 6 13 0 0 0 0 0 0 0 0 6 3 0 0 0 0 0 0 0 0 0 0 0 0 0 0 0 0 0 0
39 29 23 19 19 23 16 13 13 0 0 0 0 0 0 0 0 0 0 0 0 0 0 0 3 0 0 0 0 0 0 0 0 0 0 0 0 0 0 0 0 0 0
19 16 16 16 13 10 10 13 16 13 10 6 0 0 0 0 0 0 0 0 0 0 0 0 0 0 3 3 3 0 0 0 0 0 0 0 0 0 0 0 0 0 0
10 10 13 13 6 6 6 6 10 10 13 13 6 0 0 0 0 0 0 0 0 0 0 0 0 0 3 3 3 3 3 0 0 0 0 0 0 0 0 0 0 0 0
10 6 10 10 10 6 6 6 10 10 10 6 6 3 3 0 3 0 0 0 0 3 3 3 3 3 3 3 3 3 3 3 3 0 0 0 0 0 0 0 0 0 0
13 6 0 6 13 13 6 10 13 10 10 6 3 3 3 3 3 3 3 3 3 3 3 3 3 3 3 3 3 3 3 3 0 0 0 0 0 0 0 0 0 0 0
6 6 6 6 10 6 6 6 6 6 6 3 3 3 0 3 3 3 3 3 3 3 3 3 3 3 3 3 3 0 0 0 0 0 0 0 0 0 0 0 0 0 0
6 6 3 10 6 3 6 6 10 6 3 3 3 3 3 3 3 3 3 3 3 3 3 3 3 3 3 3 0 0 0 0 0 0 0 0 0 0 0 0 0 0 0
3 3 6 3 3 3 3 3 3 6 6 3 3 3 3 3 3 3 3 3 3 3 3 3 3 3 3 0 0 0 0 0 0 0 0 0 0 0 0 0 0 0 0
3 3 3 6 3 3 3 3 3 3 3 6 6 6 6 6 6 3 6 3 3 3 3 0 0 0 0 0 0 0 0 0 0 0 0 0 0 0 0 0 0 0 0
3 3 3 6 6 3 3 3 3 3 3 3 3 3 3 3 3 3 3 0 0 0 0 0 0 0 0 0 0 0 0 0 0 0 0 0 0 0 0 0 0 0 0

GEFSGL_con_cape1000_186.txt.gz
Probability
81 84 87 84 84 81 84 81 81 77 77 71 68 65 61 65 61 58 58 58 45 35 35 35 39 39 42 39 32 32 26 23 13 10 16 32 32 19 10 16 16 10 3
84 84 87 74 81 77 77 84 81 81 77 71 71 65 61 55 58 55 55 42 39 32 32 35 35 26 35 35 35 23 29 32 19 16 10 29 32 35 35 32 6 0 0
77 77 68 74 74 81 71 74 77 77 74 74 71 65 58 61 52 48 48 52 45 32 35 35 32 23 29 29 35 19 26 13 23 13 16 23 29 10 23 13 0 6 0
74 74 74 74 74 77 71 74 68 74 81 71 68 61 58 58 55 48 48 48 45 45 42 39 26 26 23 29 26 26 19 19 23 26 13 19 13 16 10 6 0 10 0
65 71 77 77 74 74 71 71 65 65 61 68 61 58 58 48 48 52 48 45 52 48 42 39 32 23 23 23 16 19 19 26 16 16 19 16 6 16 6 0 0 6 6
68 65 71 74 74 74 68 65 65 52 55 65 61 55 52 45 32 26 39 45 52 48 45 42 29 19 10 3 3 3 0 16 13 10 13 3 10 6 13 0 3 6 3
71 68 71 71 68 71 65 65 55 58 55 55 58 45 52 39 26 10 3 23 52 48 48 45 23 23 6 13 6 0 0 0 0 10 3 3 0 3 3 6 6 3 6
74 71 74 74 71 68 68 68 61 58 55 55 52 48 52 42 23 6 0 3 29 48 48 39 35 26 16 13 13 6 3 0 0 0 0 3 0 0 3 0 3 3 3
65 58 58 58 61 61 58 65 61 58 61 58 55 58 61 35 16 3 0 10 29 32 32 29 29 29 13 3 6 13 3 3 3 0 0 0 0 0 0 0 0 0 0
68 61 58 61 61 61 58 58 61 61 65 58 55 55 58 45 19 3 0 13 23 29 42 26 6 6 6 3 3 6 6 6 3 3 0 0 0 0 0 0 0 0 0
68 71 65 61 55 55 61 61 68 68 65 61 58 55 48 39 19 6 0 13 19 26 19 16 23 0 0 0 0 3 3 3 3 3 3 3 0 0 0 0 0 0 0
61 58 55 55 52 55 55 61 61 61 55 55 61 52 42 35 16 3 0 0 0 13 16 10 6 0 0 0 0 0 0 0 0 3 0 0 0 0 0 0 0 0 0
55 52 52 48 48 48 48 48 45 48 52 52 45 42 35 29 19 0 0 0 0 0 6 0 0 0 0 0 0 0 0 0 0 0 0 0 0 0 0 0 0 0 0
48 48 48 45 45 42 39 39 35 32 39 52 42 32 32 26 26 10 3 0 0 0 0 3 0 0 0 0 0 0 0 0 3 0 0 0 0 0 0 0 0 0 0
48 48 45 42 35 29 23 19 19 23 16 23 26 26 26 23 13 13 6 3 0 0 0 0 6 3 3 3 3 3 3 0 0 0 0 0 0 0 0 0 0 0 0
48 45 35 35 32 23 19 13 0 0 0 0 3 3 3 0 0 0 0 3 0 0 0 6 3 3 0 0 0 0 0 0 0 0 0 0 0 0 0 0 0 0 0
39 32 32 32 29 26 26 23 13 0 0 0 0 0 0 0 0 0 0 0 0 0 3 0 0 0 0 0 0 0 0 0 0 0 0 0 0 0 0 0 0 0 0
29 23 32 23 23 23 26 23 19 16 10 3 0 0 0 0 0 0 0 0 0 0 0 0 0 0 0 0 3 0 0 0 0 0 3 3 3 3 3 3 0 0 0
16 13 13 13 16 19 23 16 13 16 16 10 3 0 0 0 0 0 0 0 0 0 0 0 0 0 0 0 0 0 0 0 3 3 3 3 3 3 3 3 3 3 0
16 6 10 16 13 13 10 6 16 13 13 13 0 0 0 0 0 0 0 0 0 0 0 0 0 0 3 3 3 3 3 3 3 3 3 3 3 3 3 3 0 0 0
13 10 3 10 6 6 6 3 3 6 10 10 3 0 0 0 0 0 0 0 0 0 0 0 0 0 0 3 3 3 3 3 3 3 3 3 0 0 0 0 0 0 0
16 10 6 6 3 3 3 3 3 6 3 0 0 0 0 0 0 0 0 0 0 0 0 0 0 3 3 3 3 3 3 3 3 0 0 0 0 0 0 0 0 0 0
10 6 3 3 3 0 3 3 6 3 3 0 0 0 0 0 0 0 3 3 3 3 3 3 3 3 3 3 0 0 0 0 0 0 0 0 0 0 0 0 0 0 0
6 6 3 3 0 0 3 3 3 3 0 3 3 3 3 3 3 3 3 3 3 3 3 0 0 0 0 0 0 0 0 0 0 0 0 0 0 0 0 0 0 0 0
10 6 6 6 10 3 3 3 6 3 3 3 3 3 3 3 3 3 3 3 0 0 0 0 0 0 0 0 0 0 0 0 0 0 0 0 0 0 0 0 0 0 0
6 6 6 10 10 10 6 3 3 3 3 3 3 3 3 0 0 0 0 0 0 0 0 0 0 0 0 0 0 0 0 0 0 0 0 0 0 0 0 0 0 0 0

GEFSGL_con_cape1000_192.txt.gz
Probability
55 52 52 55 55 45 35 39 39 39 35 35 32 35 32 26 32 23 13 10 10 10 6 10 10 6 6 6 3 0 0 0 0 0 0 0 0 0 0 0 0 0 0
52 45 42 42 45 45 45 42 35 32 29 29 32 29 35 29 29 29 23 23 13 13 10 10 10 6 6 6 6 3 0 0 0 0 0 0 0 0 0 0 0 0 0
48 42 42 42 45 42 45 45 39 42 32 32 29 32 26 32 23 26 26 26 19 19 10 13 10 10 6 6 3 3 3 0 0 0 0 0 0 0 0 0 0 0 0
45 42 42 42 42 42 42 42 42 39 35 29 32 26 23 29 23 26 23 23 13 16 16 13 10 10 10 10 3 3 3 0 0 0 0 0 0 0 0 0 0 0 0
45 45 42 39 39 35 35 42 42 42 42 32 26 26 32 32 32 23 19 19 16 19 16 10 13 10 10 6 6 6 3 3 0 0 0 0 0 0 0 0 0 0 0
45 42 42 39 35 35 35 35 39 39 35 29 29 29 29 29 26 10 16 16 16 16 16 16 10 6 3 3 0 0 0 3 0 0 0 0 0 0 0 0 0 0 0
39 42 39 32 29 29 32 32 32 35 29 26 26 26 26 26 19 0 0 10 13 10 10 13 13 10 3 3 3 0 0 0 0 0 0 0 0 0 0 0 0 0 0
39 35 35 35 32 29 29 29 29 26 29 29 26 26 26 26 10 0 0 0 6 10 10 6 3 3 0 0 3 3 3 0 0 0 0 0 0 0 0 0 0 0 0
35 32 35 29 26 26 23 23 23 23 23 19 23 23 19 19 13 0 0 3 3 3 3 6 0 0 0 0 0 3 3 3 0 0 0 0 0 0 0 0 0 0 0
26 26 32 32 29 23 23 23 23 23 23 19 16 16 16 16 13 3 0 0 0 3 3 6 0 0 0 0 0 0 0 0 3 3 0 0 0 0 0 0 0 0 0
23 23 26 23 23 23 19 19 19 19 19 16 16 16 16 13 10 3 0 0 0 0 0 3 0 0 0 0 0 0 0 0 0 0 0 0 0 0 0 0 0 0 0
16 16 16 19 26 23 19 16 19 16 13 13 10 10 10 3 3 0 0 0 0 3 3 3 0 0 0 0 0 0 0 0 0 0 0 0 0 0 0 0 0 0 0
16 16 13 10 16 13 16 16 16 10 13 13 10 10 6 3 3 0 0 0 0 0 3 3 0 0 0 0 0 0 0 0 0 0 0 0 0 0 0 0 0 0 0
16 13 10 10 6 6 6 10 10 13 6 6 6 6 6 3 3 3 0 0 0 0 0 0 0 0 0 0 0 0 0 0 0 0 0 0 0 0 0 0 0 0 0
10 10 6 6 6 6 6 6 6 6 10 10 6 6 6 3 3 3 0 0 0 0 0 0 0 0 0 0 0 0 0 0 0 0 0 0 0 0 0 0 0 0 0
6 10 6 6 6 6 6 3 3 3 3 0 0 3 0 0 0 0 0 0 0 0 0 0 0 0 0 0 0 0 0 0 0 0 0 0 0 0 0 0 0 0 0
6 6 6 3 6 3 3 3 3 0 0 0 0 0 0 0 0 0 0 0 0 0 0 0 0 0 0 0 0 0 0 0 0 0 0 0 0 0 0 0 0 0 0
6 3 3 3 3 3 3 3 3 3 3 0 0 0 0 0 0 0 0 0 0 0 0 0 0 0 0 0 0 0 0 0 0 0 0 0 0 0 0 0 0 0 0
6 6 3 0 0 3 3 3 3 3 3 0 0 0 0 0 0 0 0 0 0 0 0 0 0 0 0 0 0 0 0 0 0 0 0 0 0 0 0 0 0 0 0
0 0 0 0 0 0 0 3 3 3 3 3 0 0 0 0 0 0 0 0 0 0 0 0 0 0 0 0 0 0 0 0 0 0 0 0 0 0 0 0 0 0 0
0 0 0 0 0 0 0 0 0 0 3 3 0 0 0 0 0 0 0 0 0 0 0 0 0 0 0 0 0 0 0 0 0 0 0 0 0 0 0 0 0 0 0
0 0 0 0 0 0 0 0 0 0 0 0 0 0 0 0 0 0 0 0 0 0 0 0 0 0 0 0 0 0 0 0 0 0 0 0 0 0 0 0 0 0 0
0 0 0 0 0 0 0 0 0 0 0 0 0 0 0 0 0 0 0 0 0 0 0 0 0 0 0 0 0 0 0 0 0 0 0 0 0 0 0 0 0 0 0
0 0 0 0 0 0 0 0 0 0 0 0 0 0 0 0 0 0 0 0 0 0 0 0 0 0 0 0 0 0 0 0 0 0 0 0 0 0 0 0 0 0 0
0 0 0 0 0 0 0 0 0 0 0 0 0 0 0 0 0 0 0 0 0 0 0 0 0 0 0 0 0 0 0 0 0 0 0 0 0 0 0 0 0 0 0
0 0 0 0 0 0 0 0 0 0 0 0 0 0 0 0 0 0 0 0 0 0 0 0 0 0 0 0 0 0 0 0 0 0 0 0 0 0 0 0 0 0 0

GEFSGL_con_cape1000_198.txt.gz
Probability
39 39 35 35 35 29 26 26 26 23 26 19 13 13 13 13 10 10 10 3 0 6 6 6 6 6 3 3 3 3 3 0 0 3 0 0 0 0 0 0 0 0 0
39 39 35 32 32 35 35 32 29 19 23 19 19 16 10 10 13 10 6 6 6 3 3 3 6 6 6 3 3 3 3 3 3 3 3 3 0 0 0 0 0 0 0
35 35 35 35 39 35 32 26 29 26 26 26 23 23 19 16 16 13 13 13 10 13 13 10 6 3 3 6 6 6 6 3 3 3 3 3 3 0 0 0 0 0 0
35 39 35 39 39 35 32 35 32 32 29 23 23 23 23 19 19 16 19 16 19 19 13 16 10 10 10 10 6 10 6 6 6 3 3 3 3 0 0 0 0 0 0
39 39 35 35 32 32 32 35 32 32 32 29 29 29 23 16 19 19 19 19 19 23 19 19 16 13 6 6 3 6 6 6 6 6 0 0 3 0 0 0 0 0 0
35 32 35 35 32 32 29 29 32 29 29 29 26 26 26 23 10 3 6 16 19 23 26 23 19 3 3 0 0 0 0 3 6 6 3 3 3 3 3 0 0 0 0
39 35 32 32 29 29 26 29 32 29 26 26 26 26 26 23 6 0 0 3 13 16 16 19 10 13 3 10 0 0 0 0 0 0 3 3 3 3 3 3 3 0 0
35 35 32 32 29 29 29 26 19 19 19 19 19 19 19 16 3 0 0 0 6 10 13 13 10 13 6 6 6 3 3 0 0 0 0 0 0 3 3 3 3 3 3
29 29 26 23 26 26 26 19 19 19 19 19 19 19 13 13 6 0 0 0 3 6 6 6 6 13 3 0 0 0 0 0 0 0 0 0 0 0 0 0 0 0 0
29 26 23 23 23 19 19 19 16 16 16 13 10 10 10 13 10 0 0 3 6 6 6 3 0 0 3 0 0 0 0 3 3 0 0 0 0 0 0 0 0 0 0
23 19 16 16 16 16 16 16 16 13 13 13 10 6 6 6 6 0 0 0 3 6 6 6 3 0 0 0 0 0 0 0 0 0 0 0 0 0 0 0 0 0 0
10 10 13 13 13 16 13 13 10 10 10 10 10 6 6 6 6 0 0 0 0 6 3 3 3 0 0 0 0 0 0 0 0 0 0 0 0 0 0 0 0 0 0
13 13 13 10 6 6 6 6 10 10 10 10 6 6 6 6 6 0 0 0 0 0 3 3 0 0 0 0 0 0 0 0 0 0 0 0 0 0 0 0 0 0 0
13 10 10 10 6 6 6 6 6 10 10 6 6 6 6 6 6 6 3 0 0 0 0 0 0 0 0 0 0 0 0 0 0 0 0 0 0 0 0 0 0 0 0
6 10 3 3 0 3 3 3 3 3 3 3 3 6 6 6 6 6 6 3 3 3 0 0 0 0 0 0 0 0 0 0 0 0 0 0 0 0 0 0 0 0 0
0 0 0 0 0 0 0 3 0 0 0 0 0 3 3 3 3 0 0 0 0 0 0 0 0 0 0 0 0 0 0 0 0 0 0 0 0 0 0 0 0 0 0
3 0 0 0 0 0 3 3 3 3 0 0 0 0 0 0 0 0 0 0 0 0 0 0 0 0 0 0 0 0 0 0 0 0 0 0 0 0 0 0 0 0 0
0 0 0 0 0 0 0 3 3 3 3 3 0 0 0 0 0 0 0 0 0 0 0 0 0 0 0 0 0 0 0 0 0 0 0 0 0 0 0 0 0 0 0
0 0 0 0 0 0 0 0 0 0 0 3 3 0 0 0 0 0 0 0 0 0 0 0 0 0 0 0 0 0 0 0 0 0 0 0 0 0 0 0 0 0 0
0 0 0 0 0 0 0 0 0 0 0 0 0 3 0 0 0 0 0 0 0 0 0 0 0 0 0 0 0 0 0 0 0 0 0 0 0 0 0 0 0 0 0
0 0 0 0 0 0 0 0 0 0 0 0 0 0 0 0 0 0 0 0 0 0 0 0 0 0 0 0 0 0 0 0 0 0 0 0 0 0 0 0 0 0 0
0 0 0 0 0 0 0 0 0 0 0 0 0 0 0 0 0 0 0 0 0 0 0 0 0 0 0 0 0 0 0 0 0 0 0 0 0 0 0 0 0 0 0
0 0 0 0 0 0 0 0 0 0 0 0 0 0 0 0 0 0 0 0 0 0 0 0 0 0 0 0 0 0 0 0 0 0 0 0 0 0 0 0 0 0 0
0 0 0 0 0 0 0 0 0 0 0 0 0 0 0 0 0 0 0 0 0 0 0 0 0 0 0 0 0 0 0 0 0 0 0 0 0 0 0 0 0 0 0
0 0 0 0 0 0 0 0 0 0 0 0 0 0 0 0 0 0 0 0 0 0 0 0 0 0 0 0 0 0 0 0 0 0 0 0 0 0 0 0 0 0 0
0 0 0 0 0 0 0 0 0 0 0 0 0 0 0 0 0 0 0 0 0 0 0 0 0 0 0 0 0 0 0 0 0 0 0 0 0 0 0 0 0 0 0

GEFSGL_con_cape1000_204.txt.gz
Probability
87 90 90 90 90 87 87 84 87 71 77 71 68 65 61 61 61 61 65 65 58 61 55 52 55 61 55 58 61 52 48 45 29 16 26 32 45 42 16 23 19 26 6
90 90 90 90 87 84 84 81 81 65 68 61 65 61 55 55 55 55 55 55 55 55 48 55 55 52 52 55 52 48 52 55 39 42 45 39 48 39 39 48 19 6 10
90 84 87 87 87 84 74 74 71 65 65 58 58 55 52 52 52 58 58 58 55 58 52 55 55 52 48 42 45 42 48 39 48 39 35 48 39 35 42 35 26 32 6
84 81 84 84 81 77 77 71 68 68 65 61 55 55 52 55 55 61 58 61 58 61 52 55 48 48 42 45 45 55 45 48 48 39 39 39 42 35 39 26 26 32 23
81 81 81 74 74 74 68 61 61 65 55 61 58 55 52 48 42 55 48 48 48 52 48 45 39 35 32 26 26 48 42 42 42 39 35 32 32 29 23 29 29 26 29
74 71 74 71 71 65 65 61 65 65 65 68 58 48 42 42 29 23 32 48 52 48 45 42 42 35 26 3 0 0 6 29 35 39 29 26 26 23 23 16 32 29 16
68 65 65 68 65 65 55 65 65 61 61 61 55 48 48 48 23 6 0 26 48 52 42 35 26 23 19 23 23 0 0 0 0 23 26 26 32 29 26 19 26 13 13
65 65 68 61 65 68 55 61 61 61 58 55 55 48 45 32 10 0 0 13 26 26 26 19 19 19 13 16 19 19 19 13 6 3 6 23 23 29 29 26 13 10 13
61 55 55 55 61 61 58 58 52 52 48 52 52 48 45 26 6 3 0 23 23 19 19 16 16 16 10 10 10 13 19 16 6 0 0 3 0 0 0 3 6 3 3
55 52 52 55 55 61 58 58 52 42 39 39 35 35 26 29 6 6 0 10 16 13 16 10 6 6 6 0 6 10 13 13 13 13 3 3 3 0 0 0 0 0 3
58 48 48 48 48 48 42 42 42 39 35 35 32 29 29 19 6 6 0 13 13 10 10 10 6 6 0 0 0 6 6 6 10 13 16 10 13 13 10 6 6 3 3
45 48 45 42 39 35 42 35 29 32 35 39 32 29 26 19 10 6 0 0 3 6 6 10 6 6 0 0 0 0 0 0 3 6 10 6 10 6 6 6 6 6 10
39 42 39 35 35 35 35 32 32 35 39 29 29 23 16 16 10 6 6 0 0 3 10 6 6 0 0 0 0 0 0 0 3 3 6 10 3 3 3 10 6 13 13
39 35 35 32 29 29 29 29 26 26 29 26 26 23 23 16 16 13 10 6 0 0 3 6 0 0 0 0 0 0 0 3 3 6 10 0 0 0 0 0 3 3 0
35 29 26 26 23 26 16 13 16 23 16 13 16 19 16 13 10 6 10 10 6 3 3 6 6 6 6 6 6 6 10 6 0 0 3 0 0 0 3 3 3 3 0
26 23 26 19 19 13 10 10 6 6 3 3 3 6 6 3 0 0 3 3 3 3 3 6 6 6 6 3 6 6 6 6 6 3 0 0 0 0 0 0 0 0 0
29 23 16 16 13 13 6 10 6 6 0 0 0 0 0 0 0 0 0 0 0 0 3 3 3 6 6 3 6 6 6 6 6 0 0 0 0 0 0 0 0 0 0
19 6 13 10 10 10 10 10 6 6 6 6 0 0 0 0 0 0 0 0 0 0 3 3 3 3 3 6 3 3 3 6 3 0 0 0 0 0 0 0 0 0 3
19 10 10 10 6 6 6 6 3 6 6 6 3 3 0 0 0 0 0 0 3 3 3 3 3 3 3 3 3 6 3 3 0 0 0 0 0 0 0 0 0 0 0
10 6 3 6 6 3 6 6 6 3 3 3 3 3 3 3 3 3 0 3 3 3 3 3 3 3 3 3 6 6 3 3 3 0 0 0 3 3 3 0 0 3 3
6 6 0 3 3 3 3 3 3 3 3 3 3 3 0 3 3 3 0 0 0 0 0 0 0 0 3 3 0 0 3 3 0 0 0 0 0 0 0 0 0 3 0
10 6 6 3 3 3 3 3 3 3 3 3 3 3 0 0 3 0 0 0 0 0 0 0 0 0 0 0 0 0 0 0 0 0 0 0 0 0 0 0 0 0 0
6 3 3 3 3 0 3 3 3 3 3 3 3 3 0 0 0 0 0 0 0 0 0 0 0 0 0 0 0 0 0 0 0 0 0 0 0 0 0 0 0 0 0
3 3 3 3 3 3 3 3 3 3 3 3 3 0 0 0 0 0 0 0 0 0 0 0 0 0 0 0 0 0 0 0 0 0 0 0 0 0 0 0 0 0 0
0 3 3 3 3 3 3 3 3 3 0 0 0 0 0 0 0 0 0 0 0 0 0 0 0 0 0 0 0 0 0 0 0 0 0 0 0 0 0 0 0 0 0
0 0 3 3 3 3 3 3 3 0 0 0 0 0 0 0 0 0 0 0 0 0 0 0 0 0 0 0 0 0 0 0 0 0 0 0 0 0 0 0 0 0 0

GEFSGL_con_cape1000_210.txt.gz
Probability
97 97 97 97 94 94 94 90 90 87 87 84 81 77 71 68 65 71 71 71 65 61 61 61 68 68 68 65 61 61 61 55 35 42 42 45 45 35 19 32 26 16 6
94 94 94 94 94 90 87 84 84 84 87 81 81 74 65 68 65 65 61 61 58 58 58 61 58 52 65 65 65 55 55 48 45 35 39 52 52 45 48 42 19 10 13
94 94 94 94 90 84 84 84 84 87 90 81 71 71 71 65 61 65 61 61 61 58 65 65 65 61 61 58 61 58 58 35 48 45 32 45 48 42 42 29 16 26 19
94 94 94 94 87 84 84 84 84 84 84 74 68 68 65 61 58 55 55 55 65 61 58 61 52 55 52 42 42 42 39 39 42 26 32 26 32 29 32 29 19 32 19
94 94 94 87 87 81 81 81 81 77 71 71 65 65 58 52 45 45 55 52 55 52 52 48 48 45 29 23 23 19 26 23 29 26 23 23 26 23 23 23 13 23 19
90 87 84 81 81 84 77 74 77 74 74 71 61 58 58 42 23 19 29 48 48 52 48 45 35 32 26 19 6 3 6 16 26 26 23 13 10 16 13 13 10 13 10
84 77 77 71 74 81 71 77 77 74 68 65 61 58 55 39 19 16 10 26 32 45 42 35 29 23 23 19 13 6 0 0 0 6 10 16 13 16 19 13 13 10 6
81 74 74 68 71 74 74 71 71 65 61 58 55 52 42 29 13 13 0 16 26 35 29 23 23 19 13 13 6 10 10 10 10 3 6 10 13 16 16 13 13 16 19
74 74 74 68 68 65 71 71 71 61 58 58 58 42 35 23 6 6 0 19 32 23 16 13 23 16 6 6 6 10 6 6 6 3 3 3 3 0 0 6 10 6 3
71 68 65 65 68 68 65 65 61 61 58 55 52 39 35 23 13 6 0 13 23 16 19 16 6 6 6 6 6 6 6 10 10 6 6 3 3 3 0 0 6 3 3
65 61 61 61 61 65 65 65 58 55 55 39 39 32 32 16 10 3 3 10 19 19 23 16 13 6 0 0 0 3 6 6 13 13 10 10 10 10 10 3 3 3 3
58 58 55 55 55 52 61 58 52 55 42 35 32 29 29 19 10 6 3 0 6 13 19 13 13 3 3 0 0 3 0 0 3 6 6 6 10 10 10 10 10 3 0
52 52 52 55 48 48 48 48 45 45 35 32 29 29 26 19 13 3 3 3 0 3 3 3 3 3 0 0 0 0 0 0 3 3 3 6 10 6 10 6 6 3 0
48 52 52 48 35 29 32 29 26 26 26 26 26 19 13 13 10 6 3 3 0 0 3 3 3 0 0 0 0 3 3 3 3 3 3 3 6 6 3 3 0 0 3
42 42 39 32 26 23 13 10 13 13 13 19 16 13 10 10 6 3 6 3 3 3 3 3 3 3 3 3 3 3 3 3 3 3 3 0 3 0 0 0 0 0 0
42 39 35 23 23 13 10 10 3 3 3 3 6 3 3 3 3 3 3 0 0 0 3 6 6 6 6 6 6 6 6 3 3 6 3 3 3 0 0 0 0 0 0
35 32 29 23 19 19 13 13 6 3 3 3 3 3 3 3 0 0 0 0 0 0 3 6 6 6 3 3 3 3 3 3 3 3 3 3 3 3 0 0 0 0 0
29 29 26 26 23 19 16 13 10 6 6 3 3 0 0 0 0 0 0 0 3 0 3 3 3 3 3 3 3 3 0 0 0 0 0 3 3 3 3 0 0 0 0
23 19 19 16 19 23 23 10 10 10 6 3 3 3 0 0 0 0 0 3 3 3 3 3 3 3 0 0 0 0 0 0 0 0 0 0 0 0 0 0 0 0 0
19 10 10 13 13 13 10 6 6 3 3 3 3 3 0 3 3 0 0 3 3 3 3 0 0 0 0 0 0 0 0 0 0 0 0 0 0 0 0 0 0 0 0
10 10 6 10 10 13 10 10 3 3 3 3 3 3 3 3 3 3 3 3 0 0 0 0 0 0 0 0 0 0 0 0 0 0 0 0 0 0 0 0 0 0 0
10 10 10 10 10 10 10 6 6 3 3 3 3 3 0 3 3 3 0 0 0 0 0 0 0 0 0 0 0 0 0 0 0 0 0 0 0 0 0 0 0 0 0
6 10 10 10 10 6 6 3 3 3 3 3 3 3 3 3 0 0 0 0 0 0 0 0 0 0 0 0 0 0 0 0 0 0 0 0 0 0 0 0 0 0 0
6 6 10 10 10 3 3 3 3 3 3 3 3 3 3 0 0 0 0 0 0 0 0 0 0 0 0 0 0 0 0 0 0 0 0 0 0 0 0 0 0 0 0
3 3 3 6 3 3 3 3 3 6 3 3 3 0 0 0 0 0 0 0 0 0 0 0 0 0 0 0 0 0 0 0 0 0 0 0 0 0 0 0 0 0 0
3 0 0 3 3 3 3 3 3 3 3 3 0 0 0 0 0 0 0 0 0 0 0 0 0 0 0 0 0 0 0 0 0 0 0 0 0 0 0 0 0 0 0

GEFSGL_con_cape1000_216.txt.gz
Probability
77 77 81 81 71 68 61 55 52 52 48 45 42 42 42 42 35 32 32 29 23 19 13 13 13 10 10 6 6 6 3 3 3 6 0 0 3 3 3 3 0 0 0
77 81 77 74 65 68 65 58 52 48 48 42 42 39 39 35 32 29 29 26 19 16 16 13 13 10 10 13 10 10 3 3 3 3 0 0 0 0 3 3 3 3 0
81 74 74 68 68 68 65 58 52 48 42 42 42 35 35 35 32 29 29 29 26 19 13 13 13 13 13 13 13 13 10 10 6 6 3 3 0 0 0 0 0 0 0
74 74 71 68 65 65 61 58 55 45 39 39 35 32 32 29 32 29 29 29 19 19 16 13 13 10 6 10 10 10 13 13 6 3 3 3 3 0 0 0 3 3 3
74 71 71 71 68 58 52 48 42 39 35 32 35 32 32 29 23 23 23 23 23 19 16 13 10 10 10 10 13 10 10 10 6 6 6 6 3 3 3 3 3 3 3
71 71 71 71 65 55 55 52 45 35 29 26 32 29 26 19 19 19 19 19 19 16 13 10 10 10 10 6 3 3 3 3 6 6 6 6 6 3 0 3 3 3 3
65 68 68 71 65 55 55 48 39 35 35 26 19 13 19 19 19 16 6 10 13 10 10 10 10 6 6 6 6 3 3 0 0 3 3 6 6 6 3 3 3 3 3
65 65 58 61 58 58 52 45 42 42 35 16 16 13 10 16 13 6 6 6 3 6 6 10 6 6 6 6 6 6 6 6 6 0 3 3 6 6 6 6 6 3 3
52 55 55 52 55 52 45 45 42 32 19 16 16 16 16 13 13 3 0 6 3 3 6 6 6 6 3 3 3 3 6 6 6 0 0 0 0 0 0 3 3 3 6
55 52 52 48 48 42 39 29 29 19 19 19 16 16 16 13 10 3 0 3 6 6 6 6 3 3 3 0 3 3 3 3 3 3 3 0 0 0 0 0 0 3 3
45 45 52 42 39 39 26 29 26 23 19 16 16 13 13 13 6 6 0 3 3 3 3 3 3 3 0 0 0 3 3 3 3 3 3 3 3 3 3 3 0 0 0
42 35 35 42 39 29 26 23 23 23 23 16 13 10 10 6 6 3 0 0 3 3 3 3 3 3 3 0 0 0 0 0 0 3 3 3 3 3 3 3 3 3 0
29 26 32 29 13 19 19 19 19 23 23 23 13 10 10 6 3 3 3 0 0 3 3 3 3 3 3 0 0 0 0 0 3 3 3 3 3 3 3 3 3 0 0
23 23 16 13 13 10 16 16 16 16 16 13 13 13 6 3 3 3 3 3 0 0 3 3 3 0 0 0 0 0 0 3 3 3 3 3 3 3 3 3 3 3 0
16 13 13 10 10 6 3 6 6 3 3 10 13 10 6 3 3 3 3 3 3 3 3 3 3 3 3 3 3 3 3 3 3 3 3 3 3 3 3 3 0 0 0
16 10 10 10 10 3 3 3 3 3 3 3 3 3 3 3 3 3 3 3 3 3 3 3 3 3 3 3 3 3 3 3 3 3 3 0 0 0 0 0 0 0 0
10 6 10 10 6 3 3 3 3 3 3 0 0 0 3 3 3 3 3 0 0 0 3 3 3 3 3 3 3 3 3 0 0 0 0 0 0 0 0 0 0 0 0
6 6 10 10 6 3 3 3 3 3 3 3 3 0 0 0 0 0 0 0 0 0 0 3 3 3 0 0 0 0 0 0 0 0 0 0 0 0 0 0 0 0 0
6 3 6 3 6 6 3 3 3 3 3 3 3 3 0 0 0 0 0 0 3 0 0 0 0 0 0 0 0 0 0 0 0 0 0 0 0 0 0 0 0 0 0
3 0 6 3 0 3 3 3 3 3 3 3 3 3 0 0 0 0 0 0 3 3 0 0 0 0 0 0 0 0 0 0 0 0 0 0 0 0 0 0 0 0 0
0 0 3 3 0 3 3 3 3 3 3 3 3 3 0 0 0 0 0 0 0 0 0 0 0 0 0 0 0 0 0 0 0 0 0 0 0 0 0 0 0 0 0
0 0 0 0 0 0 3 3 3 3 3 3 3 0 0 0 0 0 0 0 0 0 0 0 0 0 0 0 0 0 0 0 0 0 0 0 0 0 0 0 0 0 0
0 0 0 0 0 0 0 0 0 3 3 3 3 3 0 0 0 0 0 0 0 0 0 0 0 0 0 0 0 0 0 0 0 0 0 0 0 0 0 0 0 0 0
0 0 0 0 0 0 0 3 3 3 3 3 0 0 0 0 0 0 0 0 0 0 0 0 0 0 0 0 0 0 0 0 0 0 0 0 0 0 0 0 0 0 0
0 0 0 0 0 0 0 0 3 3 3 3 0 0 0 0 0 0 0 0 0 0 0 0 0 0 0 0 0 0 0 0 0 0 0 0 0 0 0 0 0 0 0
0 0 0 0 0 0 0 0 3 3 3 0 0 0 0 0 0 0 0 0 0 0 0 0 0 0 0 0 0 0 0 0 0 0 0 0 0 0 0 0 0 0 0

GEFSGL_con_cape1000_222.txt.gz
Probability
48 48 48 48 48 39 39 39 39 32 29 26 29 29 32 29 26 23 19 19 19 19 16 16 13 13 10 10 6 6 6 6 6 6 6 6 6 6 6 6 6 6 6
65 65 58 58 52 45 52 45 42 39 32 29 32 32 32 35 32 32 26 26 26 26 19 16 13 13 10 10 6 6 3 3 3 3 6 6 6 6 3 3 3 3 3
65 71 68 55 52 45 52 48 39 35 35 32 29 32 32 35 35 29 29 26 23 19 13 6 6 6 6 6 6 6 6 6 6 6 10 6 6 6 6 3 3 3 3
58 68 65 65 55 52 45 48 42 32 32 29 29 29 32 32 35 26 23 19 16 16 16 10 6 6 6 6 6 6 6 6 6 6 6 10 10 10 6 6 6 6 6
55 61 65 65 61 55 52 45 42 39 35 29 29 29 29 26 26 26 19 16 16 16 13 10 10 6 6 6 6 6 6 6 6 6 6 6 6 6 6 6 6 6 6
52 48 61 65 55 48 48 42 42 42 35 32 29 23 19 16 16 13 16 16 16 19 16 16 13 6 6 3 0 3 3 3 6 6 6 6 6 6 6 3 3 3 3
45 42 48 52 52 48 48 42 42 42 32 32 19 13 13 13 10 6 6 10 16 16 16 13 6 6 6 6 3 3 0 0 0 3 3 3 3 3 3 3 3 3 3
45 48 45 42 42 42 42 39 39 29 23 19 16 16 16 13 10 6 3 6 10 6 13 10 10 6 3 3 3 3 3 3 3 3 3 3 3 3 3 3 3 3 3
45 42 42 45 42 35 32 35 35 26 16 16 16 16 16 16 10 3 0 0 0 3 3 3 3 3 3 3 3 3 3 3 3 0 0 3 0 0 0 0 3 3 3
32 32 35 35 35 35 29 26 26 19 23 16 16 16 10 10 6 0 0 0 0 3 3 3 0 3 3 0 3 3 3 3 3 3 3 3 0 0 0 0 3 3 3
29 32 26 29 26 26 26 23 19 19 19 13 13 10 10 10 6 0 0 0 0 3 3 0 3 0 0 0 0 3 3 3 3 3 3 3 3 3 3 3 3 3 3
19 26 32 29 23 19 16 13 13 19 16 16 10 10 6 6 6 3 0 0 0 3 3 3 3 3 0 0 0 3 0 0 3 3 3 3 3 3 3 3 3 3 3
16 19 16 19 19 16 13 13 13 16 13 13 13 10 6 6 6 3 0 0 0 0 3 3 3 3 0 0 0 0 0 0 3 3 3 3 3 3 3 3 3 3 3
10 10 13 16 13 10 10 6 6 10 13 13 10 10 10 6 6 6 0 0 0 0 0 0 0 0 0 0 0 0 0 3 3 3 3 3 3 3 3 3 0 0 0
10 3 3 6 6 3 6 3 3 3 3 6 10 6 6 6 3 3 3 3 3 3 3 3 3 3 3 3 3 3 3 3 3 3 3 3 3 3 0 0 0 0 0
6 6 6 3 3 3 3 3 3 3 3 0 3 3 3 3 3 0 0 0 3 3 0 3 3 3 3 3 3 3 3 3 3 3 3 3 0 0 0 0 0 0 0
3 3 3 0 3 0 3 3 3 3 3 0 0 0 0 0 0 0 0 0 0 0 3 3 3 3 3 3 3 3 3 3 3 3 3 0 0 0 0 0 0 0 0
0 3 3 0 3 3 0 3 3 3 3 3 3 0 0 0 0 0 0 0 0 0 0 3 3 3 3 3 3 3 3 0 0 0 0 0 0 0 0 0 0 0 0
0 0 0 0 0 3 0 0 3 3 3 3 3 3 0 0 0 0 0 0 3 3 3 3 3 3 3 3 3 3 0 0 0 0 0 0 0 0 0 0 0 0 0
0 0 0 0 0 0 0 0 0 3 3 3 3 3 3 0 0 0 0 0 3 3 3 3 3 3 3 0 0 0 0 0 0 0 0 0 0 0 0 0 0 0 0
0 0 0 0 0 0 0 0 0 0 3 3 3 3 3 3 3 3 0 0 0 3 3 3 3 0 0 0 0 0 0 0 0 0 0 0 0 0 0 0 0 0 0
0 0 0 0 0 0 0 0 0 0 0 3 3 3 0 0 3 3 3 0 0 0 3 3 0 0 0 0 0 0 0 0 0 0 0 0 0 0 0 0 0 0 0
0 0 0 0 0 0 0 0 0 0 0 0 3 3 3 0 0 0 0 0 0 0 0 0 0 0 0 0 0 0 0 0 0 0 0 0 0 0 0 0 0 0 0
0 0 0 0 0 0 0 0 0 0 0 0 3 3 3 0 0 0 0 0 0 0 0 0 0 0 0 0 0 0 0 0 0 0 0 0 0 0 0 0 0 0 0
0 0 0 0 0 0 0 0 0 0 0 0 0 0 0 0 0 0 0 0 0 0 0 0 0 0 0 0 0 0 0 0 0 0 0 0 0 0 0 0 0 0 0
0 0 0 0 0 0 0 0 0 0 0 0 0 0 0 0 0 0 0 0 0 0 0 0 0 0 0 0 0 0 0 0 0 0 0 0 0 0 0 0 0 0 0

GEFSGL_con_cape1000_228.txt.gz
Probability
84 84 84 84 84 84 81 84 90 90 90 84 84 81 74 68 65 68 61 55 58 58 58 52 52 55 45 48 55 35 35 35 26 29 26 23 35 35 26 35 32 29 19
84 84 84 84 84 84 84 84 87 84 81 77 74 71 65 65 65 61 55 48 45 48 42 45 45 42 45 45 52 39 35 35 23 23 29 32 32 29 35 39 26 13 16
81 84 84 84 84 84 81 87 84 87 87 74 71 71 68 68 61 58 48 48 42 39 35 35 35 35 35 32 32 32 26 16 32 26 23 32 32 32 26 29 23 35 13
81 81 84 81 84 81 81 81 87 87 84 74 71 68 68 55 52 42 42 45 42 39 39 29 23 23 26 26 23 23 23 26 26 23 19 19 23 19 19 16 13 23 23
74 74 74 77 81 81 77 77 74 74 68 68 65 58 55 48 39 39 42 42 45 42 29 26 23 19 19 16 16 26 26 19 23 19 19 16 16 19 19 13 10 13 16
71 71 71 71 74 74 74 71 71 65 61 58 55 55 48 35 26 19 32 35 35 35 32 29 23 19 13 3 3 3 6 23 19 16 16 16 16 10 13 13 13 13 6
68 71 71 71 71 68 61 65 65 61 58 55 55 52 48 32 19 10 6 26 29 29 29 29 23 19 16 16 3 0 0 0 0 16 13 13 13 10 10 10 10 10 10
68 68 71 71 65 61 65 61 61 55 55 52 52 48 45 29 19 6 0 19 26 26 26 26 26 23 16 13 13 13 16 13 3 6 13 16 10 10 10 10 10 10 10
58 61 65 65 65 61 65 61 55 55 55 52 42 39 35 26 16 0 0 19 23 23 23 19 19 19 10 6 10 10 10 10 3 3 3 3 3 3 3 3 6 3 3
58 58 61 58 58 58 58 55 55 52 45 35 35 32 29 26 10 0 0 16 16 16 19 13 10 6 6 0 10 10 10 10 10 3 3 3 3 3 3 3 3 3 3
52 52 58 55 58 58 55 48 45 39 32 29 29 29 23 13 6 6 0 16 13 19 13 13 10 3 0 0 0 6 6 6 6 10 10 10 10 6 6 3 6 6 6
48 52 55 55 52 42 39 39 39 35 29 29 26 23 23 10 10 6 0 0 3 13 10 10 10 3 0 0 0 0 0 0 6 10 6 6 6 6 6 6 6 6 3
48 52 55 45 35 29 32 26 32 29 29 29 23 23 23 13 10 10 3 0 0 3 10 10 3 3 0 0 0 0 0 0 3 3 3 3 3 3 3 3 3 3 3
39 35 35 29 26 29 26 23 19 16 16 19 23 23 16 13 10 10 10 6 0 0 3 3 0 0 0 0 3 0 0 3 3 3 3 3 3 3 3 3 3 3 3
26 26 23 26 26 19 16 19 13 10 10 6 10 13 13 13 3 3 6 6 6 3 3 6 3 3 3 3 3 3 3 3 3 3 3 3 3 3 3 3 3 3 3
23 19 16 16 13 13 10 6 0 0 0 0 0 3 3 3 3 3 3 3 3 3 3 3 3 6 3 3 3 3 3 3 3 3 3 3 3 3 3 3 3 3 0
29 19 13 10 10 6 6 10 6 0 0 0 0 0 0 0 0 0 0 0 0 0 3 3 3 3 3 3 3 3 3 3 3 3 3 3 3 3 3 3 3 3 0
13 6 3 10 6 6 3 6 6 3 3 0 0 3 0 0 0 0 0 0 3 0 3 3 3 3 3 3 3 3 3 3 3 3 3 3 3 3 3 3 3 0 0
10 10 6 6 6 6 6 3 3 3 3 3 0 0 3 0 0 0 0 3 3 3 3 3 3 3 3 3 3 3 3 3 3 3 3 3 3 3 3 3 0 0 0
6 3 6 6 6 3 3 3 3 3 3 3 0 0 0 3 3 3 0 3 3 3 6 6 3 3 3 3 3 3 3 3 3 3 3 3 3 3 3 0 0 0 0
6 3 0 0 6 3 3 3 0 0 3 0 0 0 0 0 3 3 3 3 3 3 6 6 3 3 3 3 3 3 3 3 3 3 3 3 3 3 0 0 0 0 0
3 0 0 0 3 0 3 3 0 3 6 0 0 0 0 0 3 3 3 3 3 3 3 3 3 3 3 3 3 3 3 3 3 3 3 3 3 0 0 0 0 0 0
3 3 3 0 3 0 0 3 0 0 0 0 0 0 0 0 3 3 3 3 3 3 3 3 3 3 3 3 3 3 3 3 3 3 3 3 0 0 0 0 0 0 0
3 3 3 3 6 3 3 0 0 0 0 0 0 0 0 0 0 3 3 3 3 0 0 3 3 3 3 3 3 3 3 3 3 3 3 0 0 0 0 0 0 0 0
3 3 3 3 3 0 0 0 0 0 0 0 0 0 0 0 0 0 3 3 0 0 0 0 0 0 3 3 3 0 0 0 0 0 0 0 0 0 0 0 0 0 0
3 3 3 3 3 3 0 0 0 0 0 0 0 0 0 0 0 0 0 0 0 0 0 0 0 0 0 0 0 0 0 0 0 0 0 0 0 0 0 0 0 0 0

GEFSGL_con_cape1000_234.txt.gz
Probability
90 90 87 84 84 84 84 84 84 84 84 87 84 84 81 81 74 74 71 71 71 65 61 65 58 55 52 45 42 52 45 42 26 26 26 26 29 26 13 19 16 13 10
90 90 87 84 84 84 84 84 84 84 84 87 81 77 81 77 74 68 71 68 68 61 58 52 48 42 45 52 45 42 35 35 26 19 19 23 16 26 19 19 13 13 10
87 84 84 81 84 84 84 84 81 81 81 77 77 77 81 77 71 71 68 61 58 48 45 45 45 42 35 39 35 29 29 23 23 23 19 16 19 16 19 16 13 13 6
84 81 84 81 77 74 74 77 81 81 77 77 77 77 77 71 68 68 61 52 48 48 48 35 39 32 29 32 32 29 26 23 23 13 16 13 10 19 19 13 13 13 3
77 77 74 77 77 77 77 74 77 77 77 74 74 71 68 58 48 45 52 45 45 42 35 29 32 29 23 26 23 29 23 19 16 10 10 6 6 13 13 6 6 6 6
74 74 74 74 77 77 74 74 74 68 65 65 65 58 52 45 42 32 39 35 42 42 32 26 23 16 16 6 3 3 3 16 19 10 13 10 6 6 6 6 6 6 3
74 74 74 74 74 71 65 61 61 68 68 68 55 52 52 35 26 19 19 35 42 39 29 29 23 16 16 16 13 0 0 0 0 13 6 10 3 3 3 6 6 10 6
71 71 61 68 65 65 65 65 65 65 65 61 55 48 35 23 19 10 10 19 42 29 26 23 23 16 13 10 13 13 10 6 3 0 6 3 3 6 3 3 3 3 6
65 65 68 68 65 61 61 61 65 65 61 48 48 42 26 23 19 10 6 35 29 23 23 23 19 16 10 6 6 13 6 6 6 3 3 3 3 3 3 6 3 3 3
58 58 61 61 61 61 65 65 58 55 55 52 45 32 26 23 16 6 0 23 26 23 23 16 16 13 10 6 6 13 10 10 6 6 6 3 3 3 0 3 6 3 3
55 61 61 58 58 58 65 58 58 52 48 39 29 29 29 23 16 3 0 13 19 19 16 13 16 6 3 3 3 6 10 10 13 10 6 6 6 6 3 3 3 6 3
58 48 45 48 45 39 39 45 45 45 32 32 29 26 23 16 16 6 3 3 6 13 16 13 10 6 3 0 0 3 3 3 6 6 6 6 6 6 6 6 3 6 6
45 42 42 39 29 29 39 35 35 39 29 29 29 23 19 13 13 10 3 0 0 3 6 10 3 3 0 0 0 0 0 3 3 3 3 3 6 6 6 3 3 3 3
39 35 32 32 29 29 35 29 29 32 29 29 29 23 19 13 10 3 3 6 0 0 3 3 3 3 0 0 3 0 0 3 3 3 3 3 6 6 6 3 3 3 3
32 32 32 29 26 23 19 16 16 13 13 13 16 19 16 13 6 0 0 3 3 3 3 3 6 6 10 3 3 6 6 6 3 3 3 3 3 3 3 3 3 3 3
35 32 23 23 23 19 13 6 3 3 3 0 3 0 0 0 0 0 0 0 0 0 3 3 3 10 10 10 10 10 10 6 6 3 3 3 3 3 3 3 3 3 3
29 23 23 23 23 19 16 13 10 3 0 0 0 0 0 0 0 0 0 0 0 0 3 3 6 6 6 10 10 6 6 6 3 3 3 3 3 3 3 3 3 3 3
26 13 16 23 23 23 23 16 10 6 6 0 0 0 0 0 0 0 0 0 0 0 3 3 3 3 3 3 3 6 6 6 6 3 3 3 3 3 3 3 3 3 3
19 23 23 23 23 23 19 16 10 10 6 3 0 0 0 0 0 0 0 0 3 3 3 3 3 3 3 3 3 6 6 6 6 3 3 3 3 3 3 3 3 3 3
23 10 6 13 13 10 16 13 6 3 3 6 6 3 0 0 0 0 0 3 3 3 3 3 3 6 3 3 3 3 3 3 3 3 3 3 3 3 3 3 3 3 3
10 13 6 10 6 6 10 13 6 3 6 6 6 0 0 0 0 0 0 3 3 3 3 3 3 3 3 3 3 3 3 3 3 3 3 3 3 3 3 3 3 3 3
10 10 13 10 6 10 6 6 3 3 3 6 3 0 0 0 0 0 0 0 0 3 3 3 3 3 3 3 3 3 3 3 3 3 3 3 3 3 3 3 3 3 0
10 6 6 6 10 3 3 3 3 6 6 3 3 0 0 0 0 0 0 0 3 0 6 3 3 3 3 3 3 3 3 3 3 3 3 3 3 3 3 3 3 3 0
6 3 3 3 6 3 10 10 3 0 0 3 3 3 0 0 0 0 0 3 3 3 3 3 3 3 3 3 3 3 3 3 3 3 3 3 3 3 3 3 3 3 0
0 0 0 3 3 6 6 3 3 3 3 3 0 3 0 0 0 0 0 0 3 0 0 3 3 3 3 3 3 0 0 0 0 3 3 3 3 3 3 3 0 0 0
3 3 3 3 3 6 3 3 3 3 3 3 0 0 0 0 0 0 0 0 0 0 0 0 0 0 0 0 0 0 0 0 0 0 3 3 3 3 0 0 0 0 0

GEFSGL_con_cape1000_240.txt.gz
Probability
74 74 74 65 65 68 68 61 61 55 58 52 58 52 48 45 45 39 29 29 32 32 26 29 29 23 26 16 10 10 6 6 6 3 3 6 3 3 3 3 3 0 3
74 74 71 68 68 71 68 61 61 58 55 55 55 55 52 45 39 32 29 26 29 26 29 29 29 29 16 13 10 10 6 6 3 3 3 0 3 3 3 3 3 3 3
71 71 68 68 71 71 65 58 55 55 55 52 52 48 45 42 42 32 32 29 32 32 32 29 26 16 10 10 10 10 6 3 3 3 3 3 3 3 3 3 3 3 3
71 68 68 68 68 65 65 61 58 55 55 48 42 39 35 39 35 35 32 35 29 29 29 26 26 16 10 13 10 6 3 3 3 3 3 3 3 3 3 3 3 3 3
65 68 65 71 61 58 58 61 58 58 52 42 39 39 35 29 32 32 32 35 32 26 19 19 16 13 10 6 10 3 3 3 3 3 3 3 3 3 3 3 3 3 3
68 68 65 61 61 61 55 55 55 48 45 42 32 35 39 35 29 19 19 23 23 23 16 19 13 6 6 3 3 3 3 3 3 3 3 3 3 3 3 3 3 3 3
58 55 58 58 58 58 55 58 58 48 45 35 29 23 23 26 19 16 10 16 16 16 19 16 13 13 6 3 3 3 0 0 3 3 3 3 3 3 3 3 3 3 3
52 58 58 58 58 58 58 55 55 58 48 32 26 26 26 19 19 16 10 6 13 13 13 16 16 13 6 3 3 3 3 3 3 0 3 3 3 3 3 3 0 0 0
35 39 39 39 39 42 42 45 48 48 45 32 29 29 23 19 19 16 13 10 6 10 13 10 10 6 6 3 3 3 3 3 3 0 0 0 0 0 0 0 0 0 3
32 32 32 35 35 35 39 39 39 42 29 23 19 19 13 16 16 13 6 3 10 10 6 6 10 6 6 3 3 3 3 3 3 3 3 0 0 0 0 0 0 0 0
29 26 26 26 29 29 29 32 39 29 16 13 10 6 6 6 6 6 0 3 6 3 10 6 3 3 3 0 0 3 3 3 3 3 3 3 3 3 0 0 0 0 3
23 26 26 23 23 26 26 29 26 19 10 10 6 6 3 3 0 0 0 0 0 3 6 6 6 3 3 0 0 3 0 0 3 3 3 3 3 3 3 3 3 0 3
23 19 19 23 23 23 23 26 23 13 13 10 10 10 6 3 0 0 0 0 0 0 0 0 0 0 0 0 0 0 0 0 0 3 3 3 3 3 3 3 3 3 3
13 10 10 6 10 13 13 13 10 10 10 6 6 6 3 6 0 0 0 0 0 0 0 0 0 0 0 0 0 0 0 0 0 0 3 3 3 3 3 3 3 3 3
10 10 6 6 3 6 6 6 6 6 6 3 3 6 6 3 0 0 0 0 0 0 0 0 0 0 3 3 3 3 3 3 0 0 3 3 0 0 0 0 0 3 3
10 10 6 3 3 3 6 6 3 3 0 0 3 3 3 0 0 0 0 0 0 0 0 0 0 0 0 3 3 3 3 3 3 3 0 0 0 0 0 0 0 0 0
10 10 3 3 3 3 3 6 3 0 0 0 0 0 0 0 0 0 0 0 0 0 0 0 0 0 3 3 3 3 3 3 3 3 3 3 0 0 0 0 0 0 0
10 10 3 3 3 3 3 3 6 3 3 0 0 0 0 0 0 0 0 0 0 0 0 0 0 3 3 3 3 3 3 3 3 0 3 3 3 0 0 0 0 0 0
10 10 3 3 3 3 3 3 3 6 3 3 0 0 0 0 0 0 0 0 0 0 0 0 0 0 0 0 3 3 3 3 3 0 0 0 3 3 3 3 3 3 0
10 10 3 6 3 3 3 3 3 3 3 3 3 0 0 0 0 0 0 0 0 0 0 0 0 0 0 0 0 0 0 0 0 0 0 0 3 3 3 3 3 3 3
10 6 3 3 3 3 3 3 3 3 3 3 3 3 0 0 0 0 0 0 0 0 0 0 0 0 0 0 0 0 0 0 0 0 0 3 3 3 3 3 3 3 3
6 6 3 3 3 3 3 3 3 0 0 3 3 0 0 0 0 0 0 0 0 0 0 0 0 0 0 0 0 0 0 0 0 0 3 3 3 3 3 3 3 3 3
6 3 3 3 3 3 3 0 0 0 0 3 3 0 0 0 0 0 0 0 0 0 0 0 0 0 0 0 0 0 0 0 0 0 0 0 3 3 3 3 3 3 3
3 3 3 0 0 0 0 0 0 0 0 3 0 0 0 0 0 0 0 0 0 0 0 0 0 0 0 0 0 0 0 0 0 0 0 0 0 3 3 3 3 3 0
0 0 0 0 0 0 0 0 0 0 0 0 0 0 0 0 0 0 0 0 0 0 0 0 0 0 0 0 0 0 0 0 0 0 0 0 0 0 3 3 3 0 0
0 0 0 0 0 0 0 0 0 0 0 0 0 0 0 0 0 0 0 0 0 0 0 0 0 0 0 0 0 0 0 0 0 0 0 0 0 0 3 3 0 0 0